Weather History for Phnom Penh, Cambodia

Change the Weather History Date:

Wednesday, September 4, 2013

  Actual Average Record
Temperature  
Mean Temperature 84 °F -  
Max Temperature 91 °F 86 °F 93 °F (2011)
Min Temperature 78 °F 76 °F 73 °F (2001)
Cooling Degree Days 20    
Growing Degree Days 34 (Base 50)    
Moisture  
Dew Point 72 °F    
Average Humidity 66    
Maximum Humidity 89    
Minimum Humidity 48    
Precipitation  
Precipitation 0.00 in - - ()
Sea Level Pressure  
Sea Level Pressure 29.76 in    
Wind  
Wind Speed 4 mph ()    
Max Wind Speed 14 mph    
Max Gust Speed -    
Visibility 5.9 miles    
Events Rain , Thunderstorm    
Averages and records for this station are not official NWS values.
T = Trace of Precipitation, MM = Missing Value Source: Averaged Metar Reports

Daily Weather History Graph

Daily Weather History Graph

Search for Another Location

Airport:

Trip Planner

Search our weather history database for the weather conditions in past years. The results will help you decide how hot, cold, wet, or windy it might be!

Date:

Astronomy

Sep. 04, 2013 Rise Set
Actual Time 5:50 AM ICT 6:08 PM ICT
Civil Twilight 5:29 AM ICT 6:30 PM ICT
Nautical Twilight 5:04 AM ICT 6:54 PM ICT
Astronomical Twilight 4:39 AM ICT 7:19 PM ICT
Moon 4:35 AM ICT (9/4) 5:11 PM ICT (9/4)
Length of Visible Light 13h 00m
Length of Day
12h 18m
Waning Crescent, 2% of the Moon is Illuminated
Sep 4
Waning Crescent
Sep 5
New
Sep 13
First Quarter
Sep 19
Full
Sep 27
Last Quarter

Hourly Weather History & Observations

Time (ICT) Temp. Heat Index Dew Point Humidity Pressure Visibility Wind Dir Wind Speed Gust Speed Precip Events Conditions
12:00 AM 82.4 °F 89.5 °F 75.2 °F 79% 29.77 in 6.2 mi West 5.8 mph - N/A   Scattered Clouds
12:30 AM 82.4 °F 89.5 °F 75.2 °F 79% 29.77 in 6.2 mi South 1.2 mph - N/A   Scattered Clouds
1:00 AM 82.4 °F 89.5 °F 75.2 °F 79% 29.77 in 6.2 mi SSW 3.5 mph - N/A   Scattered Clouds
6:00 AM 80.6 °F 86.2 °F 75.2 °F 84% 29.74 in 6.2 mi North 2.3 mph - N/A   Partly Cloudy
6:30 AM 80.6 °F 86.2 °F 75.2 °F 84% 29.77 in 6.2 mi WNW 3.5 mph - N/A   Partly Cloudy
7:00 AM 80 °F - 77 °F 89% 29.81 in 6 mi Calm Calm - -   Partly Cloudy
7:00 AM 82.4 °F 88.2 °F 73.4 °F 74% 29.77 in 6.2 mi SW 3.5 mph - N/A   Partly Cloudy
7:30 AM 84.2 °F 90.9 °F 73.4 °F 70% 29.80 in 6.2 mi SW 2.3 mph - N/A   Partly Cloudy
8:00 AM 86.0 °F 95.1 °F 75.2 °F 70% 29.80 in 6.2 mi SSW 4.6 mph - N/A   Partly Cloudy
8:30 AM 86.0 °F 93.4 °F 73.4 °F 66% 29.80 in 6.2 mi West 2.3 mph - N/A   Partly Cloudy
9:00 AM 87.8 °F 95.6 °F 73.4 °F 62% 29.80 in 6.2 mi South 4.6 mph - N/A   Partly Cloudy
9:30 AM 87.8 °F 95.6 °F 73.4 °F 62% 29.80 in 6.2 mi SSW 5.8 mph - N/A   Partly Cloudy
10:00 AM 89.6 °F 98.2 °F 73.4 °F 59% 29.80 in 6.2 mi SSW 4.6 mph - N/A   Partly Cloudy
10:30 AM 89.6 °F 98.2 °F 73.4 °F 59% 29.80 in 6.2 mi SW 2.3 mph - N/A   Partly Cloudy
11:00 AM 91.4 °F 100.1 °F 73.4 °F 55% 29.77 in 6.2 mi SSW 5.8 mph - N/A   Partly Cloudy
11:30 AM 91.4 °F 100.1 °F 73.4 °F 55% 29.77 in 6.2 mi SW 5.8 mph - N/A   Partly Cloudy
12:00 PM 91.4 °F 98.4 °F 71.6 °F 52% 29.77 in 6.2 mi SSW 3.5 mph - N/A   Partly Cloudy
12:30 PM 91.4 °F 100.1 °F 73.4 °F 55% 29.74 in 6.2 mi SW 10.4 mph - N/A   Partly Cloudy
1:00 PM 91.4 °F 98.4 °F 71.6 °F 52% 29.74 in 6.2 mi South 5.8 mph - N/A   Scattered Clouds
1:30 PM 91.4 °F 98.4 °F 71.6 °F 52% 29.71 in 6.2 mi South 5.8 mph - N/A   Scattered Clouds
2:00 PM 91.4 °F 98.4 °F 71.6 °F 52% 29.71 in 6.2 mi North 2.3 mph - N/A   Scattered Clouds
2:30 PM 87.8 °F 93.8 °F 71.6 °F 58% 29.71 in 5.6 mi NW 12.7 mph - N/A Rain Rain
3:00 PM 84.2 °F 87.3 °F 68.0 °F 58% 29.68 in 5.6 mi NNW 13.8 mph - N/A Rain Rain
3:30 PM 86.0 °F 87.3 °F 64.4 °F 48% 29.68 in 5.6 mi North 5.8 mph - N/A Rain Rain
4:30 PM 86.0 °F 89.4 °F 68.0 °F 55% 29.71 in 5.6 mi South 8.1 mph - N/A Thunderstorm Thunderstorm
5:00 PM 86.0 °F 91.8 °F 71.6 °F 62% 29.71 in 5.6 mi SSW 5.8 mph - N/A   Scattered Clouds
5:30 PM 84.2 °F 90.9 °F 73.4 °F 70% 29.74 in 5.6 mi South 9.2 mph - N/A   Scattered Clouds
6:00 PM 82.4 °F 87.2 °F 71.6 °F 70% 29.74 in 5.6 mi SSE 4.6 mph - N/A   Scattered Clouds
6:30 PM 82.4 °F 87.2 °F 71.6 °F 70% 29.74 in 5.6 mi SE 6.9 mph - N/A   Scattered Clouds
7:00 PM 82.4 °F 87.2 °F 71.6 °F 70% 29.74 in 5.6 mi ESE 5.8 mph - N/A   Scattered Clouds
7:30 PM 82.4 °F 86.3 °F 69.8 °F 66% 29.74 in 5.6 mi ESE 5.8 mph - N/A   Scattered Clouds
8:00 PM 80.6 °F 83.9 °F 69.8 °F 70% 29.77 in 5.6 mi SE 4.6 mph - N/A   Scattered Clouds
8:30 PM 82.4 °F 87.2 °F 71.6 °F 70% 29.77 in 5.6 mi SE 3.5 mph - N/A   Scattered Clouds
9:00 PM 82.4 °F 87.2 °F 71.6 °F 70% 29.80 in 5.6 mi ESE 2.3 mph - N/A   Scattered Clouds
9:30 PM 82.4 °F 86.3 °F 69.8 °F 66% 29.77 in 5.6 mi SE 5.8 mph - N/A   Scattered Clouds
10:00 PM 82.4 °F 87.2 °F 71.6 °F 70% 29.80 in 5.6 mi SSE 5.8 mph - N/A   Scattered Clouds
10:30 PM 82.4 °F 88.2 °F 73.4 °F 74% 29.80 in 5.6 mi SSE 5.8 mph - N/A   Scattered Clouds
11:30 PM 80.6 °F 86.2 °F 75.2 °F 84% 29.77 in 5.6 mi SSE 3.5 mph - N/A   Scattered Clouds